Regional Weather Roundup
Issued by NWS

Home | Current Version | Previous Version | Text Only | Print | Product List | Glossary Off
Versions: 1 2 3 4 5 6 7 8 9 10 11 12 13 14 15 16 17 18 19 20 21 22 23 24 25 26 27 28 29 30 31 32 33 34 35 36 37 38 39 40 41 42 43 44 45 46 47 48 49 50

000
ASUS43 KDTX 250201
RWRMI
MICHIGAN HOURLY REGIONAL WEATHER ROUNDUP
NATIONAL WEATHER SERVICE DETROIT/PONTIAC MI
1000 PM EDT SUN JUL 24 2016

NOTE: "FAIR" INDICATES FEW OR NO CLOUDS BELOW 12,000 FEET WITH NO
SIGNIFICANT WEATHER AND/OR OBSTRUCTION TO VISIBILITY.

MIZ047>049-052>055-059>063-066>070-074>076-081>083-250300-
SOUTHEAST LOWER MICHIGAN

CITY           SKY/WX    TMP DP  RH WIND       PRES   REMARKS
ADRIAN         CLEAR     79  76  90 S3        29.93R
ALMA           CLOUDY    82  79  91 S6        29.86R HX  91
ANN ARBOR      MOCLDY    79  75  87 SE5       29.92R
BAD AXE        CLOUDY    79  71  78 S10       29.86S
CARO           CLOUDY    80  74  84 S7        29.85S
DETROIT CITY   CLOUDY    79  70  74 S8        29.91S
DETROIT        PTCLDY    78  71  79 S6        29.92R
FLINT          CLOUDY    83  74  74 S8        29.88S
GROSSE ILE     PTCLDY    78  73  84 S7        29.91R
HOWELL         CLOUDY    80  75  86 S5        29.91R

CITY           SKY/WX    TMP DP  RH WIND       PRES   REMARKS
JACKSON        PTCLDY    81  77  88 S7        29.92R
LAMBERTVILLE   CLEAR     80  74  83 S3        29.93R
LANSING        PTCLDY    82  75  79 S9        29.88S
LAPEER         MOCLDY    77  73  86 S6        29.90R
MASON          CLEAR     80  75  85 S3        29.90R
MONROE         CLEAR     78  74  87 SE6       29.91R
MT. CLEMENS    MOCLDY    79  72  80 S8        29.88S
PONTIAC        MOCLDY    79  73  82 S6        29.91R
PORT HOPE        N/A     80  71  74 S8        29.82F
PORT HURON     CLOUDY    75  72  88 S5        29.90S
TRI CITIES     CLOUDY    82  77  84 S10       29.85R HX  90
MIDLAND        CLOUDY    82  75  79 S9        29.83R
TROY           PTCLDY    82  71  70 S8        29.93R
SAGINAW HB     CLOUDY    81  73  78 S10       29.84S
$$
MIZ043>046-050>051-056>058-064>065-071>073-077>080-250300-
SOUTHWEST LOWER MICHIGAN

CITY           SKY/WX    TMP DP  RH WIND       PRES   REMARKS
BATTLE CREEK   CLOUDY    79  77  94 SW8       29.91R
BENTON HARBOR  CLOUDY    82  71  69 SW14G25   29.87R
BIG RAPIDS     CLOUDY    80  77  90 SW3       29.85R
COLDWATER      PTCLDY    82  76  84 S3        29.92R
FREMONT        MOCLDY    80  79  96 SW7       29.84R
HOLLAND        CLOUDY    86  77  74 SW16G25   29.86R HX  97
GRAND RAPIDS   CLOUDY    84  76  76 S12       29.86R HX  93
IONIA          MOCLDY    83  74  74 S12       29.86R
KALAMAZOO      CLOUDY    83  76  79 S8        29.89R HX  91
LUDINGTON      PTCLDY    74  72  93 SW6       29.83R
MARSHALL       CLEAR     82  78  89 S6        29.91R HX  90
MOUNT PLEASANT PTCLDY    82  77  83 S5        29.83S HX  91
MUSKEGON       CLOUDY    80  76  87 SW13      29.83S THUNDER
SOUTH HAVEN    CLOUDY    84  79  84 S6        29.86S HX  96
$$
MIZ016>042-250300-
NORTHERN LOWER MICHIGAN

CITY           SKY/WX    TMP DP  RH WIND       PRES   REMARKS
ALPENA         CLOUDY    79  71  76 S7        29.80S
BEAVER ISLAND  CLOUDY    71  70  98 SW7       29.80R FOG
BELLAIRE       MOCLDY    78  74  88 CALM      29.80S
CADILLAC       CLOUDY    78  76  94 SW7       29.86R FOG
CHARLEVOIX     PTCLDY    76  74  92 W10       29.83R
FRANKFORT      MOCLDY    73  70  91 CALM      29.82S FOG
GAYLORD        PTCLDY    77  73  87 SW8       29.83S FOG
GRAYLING       CLOUDY    80  76  88 S3        29.84R
HARBOR SPRINGS CLOUDY    74  73  98 CALM      29.79R FOG
HOUGHTON LAKE  CLOUDY    79  75  87 S5        29.84S
MANISTEE       PTCLDY    75  73  93 W6        29.82R
OSCODA         PTCLDY    78  71  79 S10       29.82R
PELLSTON       CLOUDY    75  72  90 W8        29.79R
ROGERS CITY    MOCLDY    76  70  81 CALM      29.80S
TRAVERSE CITY  PTCLDY    82  75  79 W7        29.79R
$$
MIZ007>008-015-250300-
EASTERN UPPER MICHIGAN

CITY           SKY/WX    TMP DP  RH WIND       PRES   REMARKS
KINROSS        LGT RAIN  71  70  96 SW5       29.80R VSB 1
MACKINAC ISLAN CLOUDY    71  71 100 W6        29.79R FOG
NEWBERRY       CLOUDY    71  70  97 CALM      29.80R
S. S. MARIE    CLOUDY    72  70  93 W6        29.78R FOG
MUNISING         N/A     70  69  97 CALM      29.79R
$$
MIZ004>006-011>014-085-250300-
CENTRAL UPPER MICHIGAN

CITY           SKY/WX    TMP DP  RH WIND       PRES   REMARKS
MANISTIQUE     MOCLDY    69  68  97 N5        29.79R FOG
ESCANABA         N/A    N/A N/A N/A MISG        N/A
MENOMINEE      PTCLDY    78  67  68 W3        29.82
SAWYER-GWINN   PTCLDY    72  66  83 NW3       29.84
$$
MIZ001>003-009>011-084-250300-
WESTERN UPPER MICHIGAN

CITY           SKY/WX    TMP DP  RH WIND       PRES   REMARKS
IRON MOUNTAIN  CLEAR     77  63  61 W7        29.82R
HOUGHTON       CLEAR     70  59  68 W10       29.80S
COPPER HARBOR    N/A     75  58  55 NW8G22    29.77R
IRONWOOD       CLEAR     72  63  73 SW6       29.84S
$$

ABBREVIATIONS USED IN REMARKS
   TC - TEMPERATURE IN CELSIUS
  WCI - WIND CHILL INDEX
   HX - HEAT INDEX
  VSB - VISIBILITY





USA.gov is the U.S. government's official web portal to all federal, state and local government web resources and services.